[[{"header":{"parameterUnit":"m.s-1","parameterCategory":1,"la1":30.2991,"la2":30.254,"lo1":-89.0895,"lo2":-89.0444,"dy":0.0017,"dx":0.0017,"nx":28,"ny":28,"refTime":"2025-09-03T21:00:00:Z","depth":0,"parameterNumber":2,"parameterNumberName":"U-component_of_WINDS"},"data":[0,0,0,0,0,0,0,0,0,0,0,0,0,0,0,0,0,0,0,0,0,0,0,0,0,0,0,0,0,0,0,0,0,0,0,0,0,0,0,0,0,0,0,0,0,0,0,0,0,0,0,0,0,0,0,0,0,0,3.1885,3.1885,0,3.1914,3.1915,3.1915,3.184,3.1838,3.1835,3.1833,3.1864,3.1867,3.187,0,0,0,0,0,0,0,0,0,0,0,0,0,3.1764,3.1766,3.1885,3.1885,3.1886,3.1914,3.1915,3.1915,3.1841,3.1838,3.1835,3.1832,3.1863,3.1867,3.1871,0,0,0,0,0,0,0,0,0,0,0,0,0,3.1807,3.1767,3.1885,3.1852,3.1849,3.1914,3.1915,3.1915,3.1841,3.1838,3.1834,3.1831,3.1862,3.1867,3.1871,3.1969,0,0,3.1885,3.1887,0,0,0,0,0,0,0,0,3.1805,3.1812,3.1857,3.1854,3.1852,3.187,3.1883,3.1933,3.1842,3.1844,3.1833,3.1829,3.1869,3.1873,3.1886,3.1971,3.1972,3.1885,3.1888,3.189,3.1891,0,0,0,0,0,0,0,3.1802,3.181,3.1897,3.1857,3.1854,3.1835,3.1838,3.1892,3.1876,3.1844,3.1839,3.1843,3.1867,3.1882,3.1886,3.1973,3.1885,3.1889,3.1892,3.1894,3.2135,3.2138,0,0,0,0,0,0,3.1803,3.1808,3.1896,3.1898,3.1819,3.184,3.1843,3.1868,3.1875,3.1873,3.1846,3.1839,3.1876,3.1881,3.1887,3.1999,3.189,3.1894,3.1897,3.2131,3.2135,3.2139,0,0,0,0,0,0,3.1801,3.1812,3.1895,3.1851,3.186,3.1846,3.1875,3.187,3.1885,3.1877,3.1874,3.1864,3.1873,3.1881,3.1948,3.1999,3.1896,3.19,3.2127,3.2132,3.2137,3.2225,0,0,0,0,0,0,3.1798,3.1811,3.1849,3.1853,3.1863,3.1956,3.1878,3.1873,3.1893,3.1884,3.1893,3.1891,3.1871,3.1942,3.1953,3.2003,3.1904,3.2122,3.2129,3.2136,3.2218,3.2233,3.2246,0,0,0,0,0,3.1794,3.1874,3.1851,3.1862,3.191,3.1959,3.1965,3.194,3.1897,3.1934,3.1928,3.1891,3.1992,3.1949,3.1961,3.2014,3.2119,3.2127,3.2135,3.2211,3.223,3.2246,0,0,0,0,0,0,3.1878,3.1874,3.1849,3.1933,3.1947,3.1946,3.1992,3.1961,3.1988,3.1979,3.1948,3.195,3.2023,3.2026,3.1978,3.2107,3.2048,3.2059,3.2102,3.212,3.2134,3.213,3.1908,0,0,0,0,0,3.1907,3.1947,3.1941,3.2016,3.2024,3.2007,3.2028,3.2007,3.202,3.2026,3.2025,3.204,3.2074,3.2098,3.213,3.2219,3.2217,3.226,3.2275,3.2286,3.2295,3.2338,3.2356,3.2167,3.2166,3.2166,0,0,3.1966,3.1969,3.1996,3.2033,3.2041,3.2082,3.2013,3.2061,3.209,3.2033,3.2095,3.2096,3.2109,3.2187,3.2221,3.2191,3.2347,3.2297,3.2306,3.2309,3.2348,3.2366,3.2382,3.2172,3.2171,3.217,0,0,3.2094,3.2102,3.2162,3.2171,3.2183,3.2171,3.2186,3.219,3.2187,3.2249,3.2206,3.2241,3.2302,3.2312,3.2325,3.2454,3.2419,3.2465,3.2539,3.2581,3.2596,3.2609,3.265,3.2666,3.2475,3.2475,3.2475,0,3.2166,3.2226,3.2198,3.2246,3.2262,3.2212,3.2271,3.2282,3.2305,3.2316,3.2283,3.2356,3.2362,3.2439,3.247,3.2484,3.2497,3.2463,3.2596,3.2609,3.262,3.266,3.2676,3.248,3.248,3.2479,3.2479,0,3.2311,3.2354,3.2401,3.2421,3.2443,3.2498,3.2476,3.2502,3.2479,3.247,3.2532,3.2537,3.2567,3.2584,3.2564,3.2658,3.2638,3.2601,3.2541,3.2644,3.268,3.2695,3.2488,3.2486,3.2485,3.2483,0,0,3.2494,3.2495,3.2513,3.2519,3.2528,3.256,3.2611,3.2639,3.2659,3.2677,3.2717,3.2769,3.2733,3.2748,3.2728,3.2766,3.2861,3.2723,3.2723,3.2745,3.296,3.2985,3.3003,3.2839,3.2842,3.2845,3.2957,0,3.2616,3.2702,3.2676,3.2763,3.2799,3.275,3.2794,3.2804,3.2796,3.2826,3.2818,3.2853,3.2806,3.2814,3.285,3.2842,3.2903,3.2834,3.2874,3.2876,3.2868,3.3022,3.305,3.3156,3.2972,3.2974,3.2976,0,3.2771,3.279,3.2879,3.2878,3.2892,3.2932,3.2953,3.2983,3.2992,3.2983,3.2999,3.297,3.3018,3.296,3.3025,3.2978,3.2993,3.2992,3.2995,3.2995,3.2929,3.3022,3.319,3.3204,3.2999,3.2997,3.2995,0,3.2889,3.2939,3.2996,3.3005,3.3006,3.3034,3.3036,3.3041,3.3058,3.3077,3.3087,3.3113,3.3126,3.3146,3.3124,3.3084,3.319,3.3131,3.3183,3.3183,3.3205,3.3203,3.3372,3.3221,3.3221,3.3221,3.3221,0,3.3026,3.3081,3.3049,3.3084,3.3144,3.3114,3.3174,3.317,3.3175,3.3208,3.317,3.3201,3.3172,3.3201,3.3185,3.3239,3.3246,3.3239,3.3234,3.3241,3.3241,3.3247,3.3238,3.3225,3.3224,3.3223,3.3223,0,3.3167,3.3148,3.3207,3.3202,3.3202,3.3246,3.3241,3.3273,3.3262,3.3304,3.3313,3.3296,3.3327,3.3308,3.3342,3.333,3.3399,3.3386,3.3395,3.339,3.3441,3.3435,3.3617,3.3638,3.3477,3.3479,3.348,0,3.3254,3.3295,3.3293,3.3311,3.3314,3.3346,3.3361,3.3333,3.3352,3.3363,3.3393,3.3421,3.3441,3.3495,3.3485,3.3509,3.3493,3.3556,3.3497,3.3501,3.3489,3.3485,3.3487,3.3567,3.3569,3.357,3.3571,0,3.3409,3.3396,3.342,3.344,3.3459,3.3474,3.3486,3.3504,3.3475,3.3498,3.3528,3.3544,3.3576,3.3603,3.3623,3.3625,3.3593,3.359,3.3602,3.3608,3.361,3.3605,3.3423,3.3586,3.3584,3.3583,3.3582,3.3582,3.3523,3.3554,3.3556,3.3583,3.3588,3.3599,3.3627,3.3619,3.3644,3.3666,3.3649,3.3684,3.3689,3.3712,3.3718,3.3744,3.3719,3.3738,3.3742,3.3747,3.3751,3.3609,3.3749,3.3748,3.3748,3.3748,3.3747,0,3.3671,3.3669,3.3694,3.371,3.373,3.3698,3.3708,3.3727,3.3758,3.3766,3.3785,3.3819,3.3845,3.3837,3.3859,3.3882,3.3867,3.3888,3.3884,3.3884,3.3775,3.376,3.3899,3.3899,3.3899,3.3899,3.3899,3.3899,3.3751,3.3801,3.3789,3.384,3.3838,3.3871,3.3879,3.3888,3.3893,3.3932,3.3952,3.3946,3.3946,3.3968,3.3989,3.3986,3.3994,3.402,3.4011,3.3908,3.3893,3.3878,3.3864,3.4023,3.4023,3.4117,3.4118,3.4119]},{"header":{"parameterUnit":"m.s-1","parameterCategory":1,"la1":30.2991,"la2":30.254,"lo1":-89.0895,"lo2":-89.0444,"dy":0.0017,"dx":0.0017,"nx":28,"ny":28,"refTime":"2025-09-03T21:00:00:Z","depth":0,"parameterNumber":3,"parameterNumberName":"V-component_of_WINDS"},"data":[0,0,0,0,0,0,0,0,0,0,0,0,0,0,0,0,0,0,0,0,0,0,0,0,0,0,0,0,0,0,0,0,0,0,0,0,0,0,0,0,0,0,0,0,0,0,0,0,0,0,0,0,0,0,0,0,0,0,1.065,1.0651,0,1.0724,1.0725,1.0726,1.0732,1.0731,1.073,1.0729,1.0808,1.0811,1.0814,0,0,0,0,0,0,0,0,0,0,0,0,0,1.0515,1.0518,1.065,1.0651,1.0652,1.0724,1.0725,1.0726,1.0732,1.0731,1.073,1.0729,1.0807,1.0811,1.0814,0,0,0,0,0,0,0,0,0,0,0,0,0,1.058,1.0519,1.065,1.0663,1.0665,1.0724,1.0725,1.0726,1.0732,1.0731,1.0729,1.0728,1.0806,1.081,1.0814,1.0865,0,0,1.0828,1.0829,0,0,0,0,0,0,0,0,1.0576,1.0585,1.066,1.0662,1.0665,1.0717,1.0706,1.0773,1.0732,1.0707,1.0729,1.0728,1.0779,1.0785,1.0802,1.0869,1.0873,1.0828,1.0831,1.0832,1.0834,0,0,0,0,0,0,0,1.0572,1.0582,1.0679,1.0661,1.0664,1.0666,1.0674,1.0719,1.0749,1.0709,1.0709,1.0718,1.078,1.0798,1.0804,1.0874,1.0828,1.0832,1.0834,1.0836,1.0984,1.0986,0,0,0,0,0,0,1.0565,1.0578,1.0677,1.0682,1.0617,1.067,1.0678,1.0702,1.0748,1.0754,1.0719,1.0718,1.0791,1.0799,1.0807,1.0868,1.0832,1.0836,1.0839,1.0983,1.0985,1.0986,0,0,0,0,0,0,1.0562,1.0573,1.0674,1.063,1.0643,1.0673,1.0699,1.0704,1.0722,1.0756,1.0762,1.0732,1.0791,1.0801,1.085,1.0871,1.0838,1.0842,1.0981,1.0983,1.0985,1.0992,0,0,0,0,0,0,1.0558,1.0572,1.0592,1.063,1.0645,1.0716,1.0701,1.0706,1.0729,1.0728,1.0769,1.0775,1.079,1.0844,1.0854,1.0877,1.0846,1.098,1.0982,1.0985,1.099,1.0994,1.0998,0,0,0,0,0,1.0553,1.0592,1.0593,1.0605,1.067,1.0717,1.0726,1.0741,1.073,1.075,1.0772,1.0774,1.0867,1.0849,1.0861,1.0885,1.0978,1.0981,1.0984,1.0989,1.0994,1.0998,0,0,0,0,0,0,1.0557,1.0597,1.0599,1.0651,1.068,1.0718,1.0743,1.0746,1.078,1.0778,1.0798,1.0807,1.0855,1.0875,1.0854,1.0935,1.0922,1.0927,1.0921,1.0926,1.0929,1.0923,1.0849,0,0,0,0,0,1.0563,1.0597,1.0631,1.0674,1.0689,1.0713,1.0734,1.0744,1.0775,1.0788,1.0814,1.0845,1.0881,1.0904,1.094,1.0993,1.1002,1.1015,1.1019,1.1022,1.1027,1.1055,1.1061,1.0996,1.0996,1.0996,0,0,1.0578,1.0605,1.0625,1.0676,1.0699,1.0734,1.0724,1.0762,1.0788,1.0794,1.0842,1.0861,1.0897,1.0948,1.0972,1.0966,1.1046,1.1026,1.1028,1.1031,1.1058,1.1065,1.107,1.0998,1.0998,1.0997,0,0,1.0623,1.0646,1.0684,1.0707,1.0742,1.0758,1.0767,1.0804,1.0816,1.0864,1.0869,1.09,1.0963,1.0987,1.1008,1.1059,1.1062,1.107,1.109,1.1117,1.1122,1.1127,1.1144,1.115,1.1075,1.1075,1.1075,0,1.0637,1.0689,1.0703,1.074,1.0762,1.0767,1.0805,1.0828,1.0873,1.0888,1.088,1.0957,1.0982,1.1038,1.105,1.1067,1.1078,1.1066,1.112,1.1125,1.113,1.1146,1.1153,1.1076,1.1076,1.1076,1.1076,0,1.0704,1.0739,1.0766,1.0807,1.0832,1.0869,1.089,1.0913,1.092,1.0936,1.0984,1.1014,1.1054,1.1068,1.1076,1.1125,1.112,1.1116,1.1103,1.1136,1.1152,1.1159,1.1077,1.1077,1.1076,1.1076,0,0,1.0754,1.0801,1.081,1.0828,1.0867,1.0895,1.0932,1.097,1.0989,1.102,1.1052,1.1103,1.1099,1.1123,1.1133,1.1157,1.1194,1.115,1.1151,1.1156,1.1248,1.1251,1.1258,1.1196,1.1197,1.1198,1.1245,0,1.0802,1.0867,1.088,1.0937,1.0969,1.0974,1.1006,1.1033,1.1049,1.108,1.1098,1.1133,1.1126,1.114,1.1164,1.1184,1.1213,1.1181,1.1225,1.1227,1.1215,1.1266,1.1269,1.1312,1.1251,1.1253,1.1253,0,1.0867,1.0897,1.0956,1.0988,1.1002,1.1031,1.1066,1.1095,1.1125,1.1135,1.116,1.1167,1.1206,1.119,1.1244,1.1222,1.1241,1.1253,1.1255,1.126,1.1242,1.1272,1.1326,1.1333,1.1263,1.1263,1.1262,0,1.0896,1.0952,1.0993,1.1009,1.1048,1.1067,1.1085,1.1114,1.1135,1.1166,1.118,1.1215,1.1235,1.1262,1.1279,1.1266,1.133,1.1316,1.134,1.1339,1.1353,1.1352,1.1411,1.1366,1.1366,1.1366,1.1366,0,1.0948,1.0984,1.1007,1.1033,1.1073,1.1087,1.1127,1.1144,1.1169,1.1199,1.1206,1.1233,1.1254,1.1284,1.1298,1.1339,1.1348,1.1357,1.136,1.1356,1.1355,1.1369,1.1366,1.1367,1.1367,1.1367,1.1366,0,1.0987,1.1004,1.105,1.1082,1.1091,1.1119,1.1146,1.1172,1.1187,1.1224,1.1234,1.1258,1.1294,1.1313,1.1359,1.1368,1.1414,1.1416,1.1403,1.1404,1.1426,1.1423,1.1496,1.1505,1.1454,1.1455,1.1455,0,1.1019,1.1046,1.108,1.1099,1.1116,1.1148,1.1169,1.1184,1.1206,1.1242,1.1263,1.1299,1.1328,1.1385,1.1408,1.1442,1.1444,1.1467,1.145,1.1444,1.1444,1.1441,1.1444,1.147,1.1471,1.1471,1.1472,0,1.1073,1.1079,1.1109,1.1141,1.1165,1.1192,1.1218,1.1234,1.1253,1.1277,1.1313,1.1336,1.1381,1.1417,1.1452,1.1471,1.1474,1.1477,1.1484,1.148,1.1471,1.1475,1.1411,1.1475,1.1475,1.1474,1.1474,1.1474,1.1109,1.1133,1.1159,1.1192,1.1212,1.1236,1.1261,1.1278,1.1308,1.1345,1.1353,1.139,1.1419,1.1467,1.1486,1.1516,1.1511,1.1522,1.1524,1.1527,1.1527,1.1466,1.1523,1.1523,1.1523,1.1522,1.1522,0,1.1162,1.1179,1.1209,1.1244,1.1269,1.1268,1.1297,1.1318,1.1351,1.1377,1.1405,1.1445,1.1479,1.1503,1.1538,1.1557,1.1559,1.1565,1.1564,1.1568,1.153,1.1519,1.1563,1.1563,1.1563,1.1563,1.1563,1.1563,1.1193,1.1232,1.1242,1.1291,1.1308,1.1344,1.136,1.1382,1.1402,1.1447,1.1474,1.1489,1.1514,1.155,1.1581,1.1587,1.1599,1.1605,1.1611,1.1575,1.1571,1.1567,1.1557,1.1608,1.1608,1.1647,1.1647,1.1648]}]]